Hourly Weather Chamrajnagar

Today, 22 June, Tuesday

Time Temperature Precipitation Wind Pressure Humidity
00:00 +24°C° 0 mm 2 mps 698 mmHg 84%
01:00 +24°C° 0 mm 2 mps 697 mmHg 86%
02:00 +23°C° 0 mm 2 mps 697 mmHg 88%
03:00 +23°C° 0 mm 2 mps 697 mmHg 88%
04:00 +23°C° 0 mm 1 mps 697 mmHg 89%
05:00 +23°C° 0 mm 1 mps 697 mmHg 90%
06:00 +24°C° 0 mm 2 mps 698 mmHg 83%
07:00 +25°C° 0 mm 2 mps 698 mmHg 76%
08:00 +27°C° 0 mm 3 mps 699 mmHg 69%
09:00 +28°C° 0 mm 3 mps 699 mmHg 60%
10:00 +30°C° 0 mm 4 mps 699 mmHg 51%
11:00 +33°C° 0 mm 4 mps 699 mmHg 44%
12:00 +33°C° 0 mm 4 mps 698 mmHg 41%
13:00 +34°C° 0 mm 4 mps 698 mmHg 38%
14:00 +35°C° 0 mm 4 mps 697 mmHg 35%
15:00 +34°C° 0 mm 4 mps 697 mmHg 37%
16:00 +33°C° 0 mm 5 mps 697 mmHg 39%
17:00 +33°C° 0 mm 5 mps 696 mmHg 41%
18:00 +30°C° 0 mm 4 mps 697 mmHg 50%
19:00 +28°C° 0 mm 4 mps 697 mmHg 58%
20:00 +27°C° 0 mm 3 mps 698 mmHg 67%
21:00 +26°C° 0.1 mm 3 mps 698 mmHg 70%
22:00 +26°C° 0.1 mm 2 mps 698 mmHg 73%
23:00 +25°C° 0.1 mm 2 mps 698 mmHg 75%

Tomorrow, 23 June, Wednesday

Time Temperature Precipitation Wind Pressure Humidity
00:00 +25°C° 0 mm 1 mps 698 mmHg 77%
01:00 +25°C° 0 mm 1 mps 697 mmHg 79%
02:00 +24°C° 0 mm 1 mps 697 mmHg 80%
03:00 +24°C° 0 mm 1 mps 697 mmHg 81%
04:00 +24°C° 0 mm 1 mps 697 mmHg 82%
05:00 +23°C° 0 mm 1 mps 697 mmHg 83%
06:00 +25°C° 0 mm 1 mps 697 mmHg 76%
07:00 +26°C° 0 mm 1 mps 698 mmHg 69%
08:00 +27°C° 0 mm 1 mps 698 mmHg 62%
09:00 +29°C° 0 mm 2 mps 699 mmHg 54%
10:00 +31°C° 0 mm 2 mps 699 mmHg 47%
11:00 +33°C° 0 mm 3 mps 699 mmHg 39%
12:00 +34°C° 0 mm 3 mps 698 mmHg 37%
13:00 +34°C° 0 mm 3 mps 698 mmHg 35%
14:00 +35°C° 0 mm 3 mps 697 mmHg 33%
15:00 +34°C° 0 mm 4 mps 697 mmHg 36%
16:00 +33°C° 0 mm 4 mps 697 mmHg 39%
17:00 +32°C° 0 mm 5 mps 696 mmHg 42%
18:00 +30°C° 0 mm 5 mps 697 mmHg 52%
19:00 +28°C° 0 mm 4 mps 697 mmHg 62%
20:00 +26°C° 0 mm 4 mps 698 mmHg 72%
21:00 +26°C° 0 mm 4 mps 698 mmHg 74%
22:00 +25°C° 0 mm 3 mps 698 mmHg 76%
23:00 +25°C° 0 mm 3 mps 698 mmHg 78%

Day after tomorrow, 24 June, Thursday

Time Temperature Precipitation Wind Pressure Humidity
00:00 +24°C° 0 mm 2 mps 698 mmHg 81%
01:00 +24°C° 0 mm 2 mps 697 mmHg 84%
02:00 +23°C° 0 mm 2 mps 697 mmHg 87%
03:00 +23°C° 0 mm 2 mps 697 mmHg 88%
04:00 +21°C° 0 mm 2 mps 697 mmHg 90%
05:00 +21°C° 0 mm 2 mps 697 mmHg 92%
06:00 +23°C° 0 mm 2 mps 698 mmHg 83%
07:00 +25°C° 0 mm 2 mps 698 mmHg 75%
08:00 +26°C° 0 mm 3 mps 699 mmHg 67%
09:00 +28°C° 0 mm 3 mps 699 mmHg 57%
10:00 +30°C° 0 mm 4 mps 699 mmHg 48%
11:00 +33°C° 0 mm 5 mps 699 mmHg 39%
12:00 +34°C° 0 mm 5 mps 698 mmHg 38%
13:00 +34°C° 0 mm 6 mps 698 mmHg 36%
14:00 +34°C° 0 mm 6 mps 697 mmHg 34%
15:00 +33°C° 0 mm 6 mps 697 mmHg 39%
16:00 +32°C° 0 mm 6 mps 697 mmHg 43%
17:00 +30°C° 0 mm 7 mps 697 mmHg 48%
18:00 +29°C° 0 mm 6 mps 698 mmHg 55%
19:00 +27°C° 0 mm 5 mps 698 mmHg 63%
20:00 +26°C° 0 mm 5 mps 699 mmHg 71%
21:00 +25°C° 0 mm 4 mps 699 mmHg 73%
22:00 +25°C° 0 mm 4 mps 699 mmHg 75%
23:00 +24°C° 0 mm 3 mps 699 mmHg 77%

25 June, Friday

Time Temperature Precipitation Wind Pressure Humidity
00:00 +24°C° 0 mm 3 mps 698 mmHg 80%
01:00 +22°C° 0 mm 3 mps 697 mmHg 84%
02:00 +21°C° 0 mm 2 mps 697 mmHg 87%
03:00 +21°C° 0 mm 2 mps 697 mmHg 88%
04:00 +21°C° 0 mm 2 mps 697 mmHg 90%
05:00 +20°C° 0 mm 2 mps 697 mmHg 91%
06:00 +23°C° 0 mm 2 mps 698 mmHg 82%
07:00 +24°C° 0 mm 3 mps 698 mmHg 72%
08:00 +26°C° 0 mm 4 mps 699 mmHg 63%
09:00 +28°C° 0 mm 5 mps 699 mmHg 55%
10:00 +30°C° 0 mm 5 mps 698 mmHg 47%
11:00 +33°C° 0 mm 6 mps 698 mmHg 39%
12:00 +33°C° 0 mm 6 mps 698 mmHg 38%
13:00 +33°C° 0 mm 6 mps 697 mmHg 37%
14:00 +34°C° 0 mm 6 mps 697 mmHg 36%
15:00 +33°C° 0 mm 6 mps 697 mmHg 40%
16:00 +32°C° 0 mm 6 mps 697 mmHg 44%
17:00 +30°C° 0 mm 6 mps 697 mmHg 47%
18:00 +29°C° 0 mm 5 mps 697 mmHg 54%
19:00 +27°C° 0 mm 5 mps 697 mmHg 61%
20:00 +26°C° 0 mm 4 mps 698 mmHg 67%
21:00 +25°C° 0 mm 4 mps 698 mmHg 71%
22:00 +23°C° 0 mm 4 mps 698 mmHg 75%
23:00 +24°C° 0 mm 3 mps 698 mmHg 78%

26 June, Saturday

Time Temperature Precipitation Wind Pressure Humidity
00:00 +24°C° 0 mm 3 mps 697 mmHg 77%
01:00 +24°C° 0 mm 3 mps 696 mmHg 77%
02:00 +24°C° 0 mm 3 mps 696 mmHg 76%
03:00 +22°C° 0 mm 3 mps 696 mmHg 79%
04:00 +23°C° 0 mm 2 mps 696 mmHg 82%
05:00 +21°C° 0 mm 2 mps 696 mmHg 85%
06:00 +22°C° 0 mm 3 mps 697 mmHg 78%
07:00 +25°C° 0 mm 3 mps 697 mmHg 71%
08:00 +26°C° 0 mm 4 mps 698 mmHg 65%
09:00 +28°C° 0 mm 4 mps 698 mmHg 58%
10:00 +29°C° 0 mm 4 mps 698 mmHg 52%
11:00 +32°C° 0 mm 5 mps 698 mmHg 46%
12:00 +32°C° 0 mm 5 mps 697 mmHg 43%
13:00 +33°C° 0 mm 5 mps 697 mmHg 40%
14:00 +34°C° 0 mm 5 mps 696 mmHg 37%
15:00 +33°C° 0 mm 5 mps 696 mmHg 42%
16:00 +32°C° 0 mm 5 mps 696 mmHg 47%
17:00 +29°C° 0 mm 5 mps 696 mmHg 52%
18:00 +28°C° 0 mm 5 mps 697 mmHg 58%
19:00 +27°C° 0 mm 4 mps 697 mmHg 63%
20:00 +26°C° 0 mm 4 mps 698 mmHg 69%
21:00 +26°C° 0 mm 4 mps 698 mmHg 69%
22:00 +25°C° 0 mm 3 mps 698 mmHg 69%
23:00 +25°C° 0 mm 3 mps 698 mmHg 69%

27 June, Sunday

Time Temperature Precipitation Wind Pressure Humidity
00:00 +25°C° 0 mm 3 mps 697 mmHg 70%
01:00 +25°C° 0 mm 3 mps 697 mmHg 71%
02:00 +25°C° 0 mm 3 mps 696 mmHg 72%
03:00 +24°C° 0 mm 3 mps 696 mmHg 74%
04:00 +24°C° 0 mm 3 mps 697 mmHg 77%
05:00 +22°C° 0 mm 3 mps 697 mmHg 79%
06:00 +24°C° 0 mm 3 mps 697 mmHg 74%
07:00 +25°C° 0 mm 3 mps 698 mmHg 69%
08:00 +27°C° 0 mm 4 mps 698 mmHg 64%
09:00 +28°C° 0 mm 4 mps 698 mmHg 57%
10:00 +30°C° 0 mm 5 mps 698 mmHg 50%
11:00 +33°C° 0 mm 5 mps 698 mmHg 43%
12:00 +33°C° 0 mm 5 mps 698 mmHg 42%
13:00 +33°C° 0 mm 5 mps 697 mmHg 41%
14:00 +33°C° 0 mm 5 mps 697 mmHg 41%
15:00 +32°C° 0 mm 5 mps 697 mmHg 46%
16:00 +30°C° 0 mm 5 mps 697 mmHg 51%
17:00 +29°C° 0 mm 5 mps 697 mmHg 56%
18:00 +28°C° 0.1 mm 5 mps 698 mmHg 61%
19:00 +27°C° 0.1 mm 5 mps 698 mmHg 65%
20:00 +26°C° 0.1 mm 4 mps 699 mmHg 69%
21:00 +26°C° 0 mm 4 mps 699 mmHg 71%
22:00 +25°C° 0 mm 4 mps 699 mmHg 73%
23:00 +25°C° 0 mm 3 mps 699 mmHg 74%
Show more

We Need Your Consent

Meteoprog and our Service Providers may store and access personal data such as cookies, device identifiers or other similar technologies on your device and process such data to personalise content and ads, as well as provide social media features and to analyse the traffic.

  • Store and/or access information on your device

    Cookies, device identifiers or other information can be stored or accessed on your device for the purposes indicated above.

  • Personalised ads and content, ad and content measurement, audience insights, and products development

    Ads and content can be personalised based on a profile. More data can be added to better personalise ads and content. Ad and content performance can be measured. Insights about the audience who saw the ads and content can be derived. Such data can be used to develop or improve user’s experience, systems and software.

By clicking ‘I Agree’ you will allow the use of indicated cookies, device identifiers, web beacons or other similar technologies. Your settings can be changed in the browser on your device.

For certain purposes, legitimate interests may be relied on, rather than consent. You can read more about this in our Privacy and Cookie Policy.